Year,Month,Day,Hour,Minute,Value (Times are PST for temperature in C)
2009,10,04,00,00,8.40
2009,10,04,00,01,8.40
2009,10,04,00,02,8.50
2009,10,04,00,03,8.50
2009,10,04,00,04,8.50
2009,10,04,00,05,8.50
2009,10,04,00,06,8.50
2009,10,04,00,07,8.50
2009,10,04,00,08,8.50
2009,10,04,00,09,8.40
2009,10,04,00,10,8.40
2009,10,04,00,11,8.30
2009,10,04,00,12,8.30
2009,10,04,00,13,8.20
2009,10,04,00,14,8.20
2009,10,04,00,15,8.10
2009,10,04,00,16,8.10
2009,10,04,00,17,8.00
2009,10,04,00,18,8.00
2009,10,04,00,19,7.90
2009,10,04,00,20,7.90
2009,10,04,00,21,7.80
2009,10,04,00,22,7.80
2009,10,04,00,23,7.80
2009,10,04,00,24,7.80
2009,10,04,00,25,7.80
2009,10,04,00,26,7.80
2009,10,04,00,27,7.80
2009,10,04,00,28,7.80
2009,10,04,00,29,7.80
2009,10,04,00,30,7.90
2009,10,04,00,31,7.90
2009,10,04,00,32,8.00
2009,10,04,00,33,8.00
2009,10,04,00,34,8.00
2009,10,04,00,35,8.00
2009,10,04,00,36,8.00
2009,10,04,00,37,7.90
2009,10,04,00,38,7.90
2009,10,04,00,39,7.90
2009,10,04,00,40,7.90
2009,10,04,00,41,7.80
2009,10,04,00,42,7.80
2009,10,04,00,43,7.80
2009,10,04,00,44,7.80
2009,10,04,00,45,7.80
2009,10,04,00,46,7.80
2009,10,04,00,47,7.80
2009,10,04,00,48,7.80
2009,10,04,00,49,7.80
2009,10,04,00,50,7.80
2009,10,04,00,51,7.80
2009,10,04,00,52,7.80
2009,10,04,00,53,7.80
2009,10,04,00,54,7.80
2009,10,04,00,55,7.80
2009,10,04,00,56,7.80
2009,10,04,00,57,7.80
2009,10,04,00,58,7.80
2009,10,04,00,59,7.80
2009,10,04,01,00,7.80
2009,10,04,01,01,7.80
2009,10,04,01,02,7.80
2009,10,04,01,03,7.70
2009,10,04,01,04,7.70
2009,10,04,01,05,7.70
2009,10,04,01,06,7.70
2009,10,04,01,07,7.70
2009,10,04,01,08,7.70
2009,10,04,01,09,7.70
2009,10,04,01,10,7.60
2009,10,04,01,11,7.60
2009,10,04,01,12,7.60
2009,10,04,01,13,7.60
2009,10,04,01,14,7.60
2009,10,04,01,15,7.60
2009,10,04,01,16,7.60
2009,10,04,01,17,7.60
2009,10,04,01,18,7.60
2009,10,04,01,19,7.50
2009,10,04,01,20,7.50
2009,10,04,01,21,7.50
2009,10,04,01,22,7.40
2009,10,04,01,23,7.40
2009,10,04,01,24,7.40
2009,10,04,01,25,7.30
2009,10,04,01,26,7.30
2009,10,04,01,27,7.30
2009,10,04,01,28,7.30
2009,10,04,01,29,7.20
2009,10,04,01,30,7.20
2009,10,04,01,31,7.20
2009,10,04,01,32,7.20
2009,10,04,01,33,7.20
2009,10,04,01,34,7.30
2009,10,04,01,35,7.30
2009,10,04,01,36,7.40
2009,10,04,01,37,7.40
2009,10,04,01,38,7.50
2009,10,04,01,39,7.50
2009,10,04,01,40,7.60
2009,10,04,01,41,7.60
2009,10,04,01,42,7.60
2009,10,04,01,43,7.60
2009,10,04,01,44,7.70
2009,10,04,01,45,7.90
2009,10,04,01,46,8.00
2009,10,04,01,47,8.10
2009,10,04,01,48,8.20
2009,10,04,01,49,8.30
2009,10,04,01,50,8.40
2009,10,04,01,51,8.50
2009,10,04,01,52,8.60
2009,10,04,01,53,8.70
2009,10,04,01,54,8.70
2009,10,04,01,55,8.70
2009,10,04,01,56,8.70
2009,10,04,01,57,8.70
2009,10,04,01,58,8.70
2009,10,04,01,59,8.80
2009,10,04,02,00,8.70
2009,10,04,02,01,8.70
2009,10,04,02,02,8.70
2009,10,04,02,03,8.60
2009,10,04,02,04,8.60
2009,10,04,02,05,8.50
2009,10,04,02,06,8.40
2009,10,04,02,07,8.40
2009,10,04,02,08,8.40
2009,10,04,02,09,8.40
2009,10,04,02,10,8.40
2009,10,04,02,11,8.40
2009,10,04,02,12,8.40
2009,10,04,02,13,8.40
2009,10,04,02,14,8.50
2009,10,04,02,15,8.50
2009,10,04,02,16,8.60
2009,10,04,02,17,8.60
2009,10,04,02,18,8.50
2009,10,04,02,19,8.40
2009,10,04,02,20,8.40
2009,10,04,02,21,8.40
2009,10,04,02,22,8.30
2009,10,04,02,23,8.20
2009,10,04,02,24,8.20
2009,10,04,02,25,8.10
2009,10,04,02,26,8.10
2009,10,04,02,27,8.10
2009,10,04,02,28,8.10
2009,10,04,02,29,8.20
2009,10,04,02,30,8.20
2009,10,04,02,31,8.20
2009,10,04,02,32,8.30
2009,10,04,02,33,8.40
2009,10,04,02,34,8.40
2009,10,04,02,35,8.40
2009,10,04,02,36,8.40
2009,10,04,02,37,8.40
2009,10,04,02,38,8.40
2009,10,04,02,39,8.40
2009,10,04,02,40,8.40
2009,10,04,02,41,8.40
2009,10,04,02,42,8.30
2009,10,04,02,43,8.30
2009,10,04,02,44,8.30
2009,10,04,02,45,8.20
2009,10,04,02,46,8.10
2009,10,04,02,47,8.10
2009,10,04,02,48,8.00
2009,10,04,02,49,7.90
2009,10,04,02,50,7.90
2009,10,04,02,51,7.80
2009,10,04,02,52,7.70
2009,10,04,02,53,7.70
2009,10,04,02,54,7.80
2009,10,04,02,55,8.00
2009,10,04,02,56,8.10
2009,10,04,02,57,8.20
2009,10,04,02,58,8.30
2009,10,04,02,59,8.30
2009,10,04,03,00,8.30
2009,10,04,03,01,8.30
2009,10,04,03,02,8.30
2009,10,04,03,03,8.30
2009,10,04,03,04,8.20
2009,10,04,03,05,8.10
2009,10,04,03,06,8.00
2009,10,04,03,07,8.00
2009,10,04,03,08,8.10
2009,10,04,03,09,8.20
2009,10,04,03,10,8.30
2009,10,04,03,11,8.40
2009,10,04,03,12,8.40
2009,10,04,03,13,8.40
2009,10,04,03,14,8.50
2009,10,04,03,15,8.60
2009,10,04,03,16,8.70
2009,10,04,03,17,8.90
2009,10,04,03,18,9.00
2009,10,04,03,19,9.00
2009,10,04,03,20,9.10
2009,10,04,03,21,9.20
2009,10,04,03,22,9.20
2009,10,04,03,23,9.30
2009,10,04,03,24,9.40
2009,10,04,03,25,9.50
2009,10,04,03,26,9.60
2009,10,04,03,27,9.80
2009,10,04,03,28,10.00
2009,10,04,03,29,10.20
2009,10,04,03,30,10.30
2009,10,04,03,31,10.40
2009,10,04,03,32,10.40
2009,10,04,03,33,10.40
2009,10,04,03,34,10.50
2009,10,04,03,35,10.50
2009,10,04,03,36,10.40
2009,10,04,03,37,10.40
2009,10,04,03,38,10.40
2009,10,04,03,39,10.40
2009,10,04,03,40,10.40
2009,10,04,03,41,10.40
2009,10,04,03,42,10.50
2009,10,04,03,43,10.60
2009,10,04,03,44,10.70
2009,10,04,03,45,10.80
2009,10,04,03,46,10.90
2009,10,04,03,47,10.90
2009,10,04,03,48,10.90
2009,10,04,03,49,11.00
2009,10,04,03,50,11.10
2009,10,04,03,51,11.10
2009,10,04,03,52,11.30
2009,10,04,03,53,11.40
2009,10,04,03,54,11.50
2009,10,04,03,55,11.60
2009,10,04,03,56,11.60
2009,10,04,03,57,11.60
2009,10,04,03,58,11.60
2009,10,04,03,59,11.70
2009,10,04,04,00,11.80
2009,10,04,04,01,11.80
2009,10,04,04,02,11.90
2009,10,04,04,03,11.90
2009,10,04,04,04,11.90
2009,10,04,04,05,11.90
2009,10,04,04,06,12.00
2009,10,04,04,07,12.00
2009,10,04,04,08,11.90
2009,10,04,04,09,11.90
2009,10,04,04,10,11.80
2009,10,04,04,11,11.80
2009,10,04,04,12,11.70
2009,10,04,04,13,11.70
2009,10,04,04,14,11.60
2009,10,04,04,15,11.60
2009,10,04,04,16,11.60
2009,10,04,04,17,11.60
2009,10,04,04,18,11.60
2009,10,04,04,19,11.50
2009,10,04,04,20,11.50
2009,10,04,04,21,11.50
2009,10,04,04,22,11.40
2009,10,04,04,23,11.40
2009,10,04,04,24,11.30
2009,10,04,04,25,11.20
2009,10,04,04,26,11.20
2009,10,04,04,27,11.10
2009,10,04,04,28,11.00
2009,10,04,04,29,10.90
2009,10,04,04,30,10.80
2009,10,04,04,31,10.70
2009,10,04,04,32,10.70
2009,10,04,04,33,10.60
2009,10,04,04,34,10.50
2009,10,04,04,35,10.40
2009,10,04,04,36,10.50
2009,10,04,04,37,10.50
2009,10,04,04,38,10.50
2009,10,04,04,39,10.50
2009,10,04,04,40,10.50
2009,10,04,04,41,10.50
2009,10,04,04,42,10.40
2009,10,04,04,43,10.40
2009,10,04,04,44,10.30
2009,10,04,04,45,10.30
2009,10,04,04,46,10.20
2009,10,04,04,47,10.20
2009,10,04,04,48,10.10
2009,10,04,04,49,10.10
2009,10,04,04,50,10.00
2009,10,04,04,51,10.00
2009,10,04,04,52,9.90
2009,10,04,04,53,9.80
2009,10,04,04,54,9.80
2009,10,04,04,55,9.80
2009,10,04,04,56,9.80
2009,10,04,04,57,9.70
2009,10,04,04,58,9.70
2009,10,04,04,59,9.60
2009,10,04,05,00,9.70
2009,10,04,05,01,9.80
2009,10,04,05,02,9.90
2009,10,04,05,03,9.90
2009,10,04,05,04,9.90
2009,10,04,05,05,9.90
2009,10,04,05,06,9.90
2009,10,04,05,07,9.90
2009,10,04,05,08,9.90
2009,10,04,05,09,9.90
2009,10,04,05,10,9.90
2009,10,04,05,11,10.00
2009,10,04,05,12,10.10
2009,10,04,05,13,10.20
2009,10,04,05,14,10.20
2009,10,04,05,15,10.30
2009,10,04,05,16,10.30
2009,10,04,05,17,10.30
2009,10,04,05,18,10.30
2009,10,04,05,19,10.30
2009,10,04,05,20,10.30
2009,10,04,05,21,10.30
2009,10,04,05,22,10.30
2009,10,04,05,23,10.30
2009,10,04,05,24,10.40
2009,10,04,05,25,10.40
2009,10,04,05,26,10.40
2009,10,04,05,27,10.40
2009,10,04,05,28,10.40
2009,10,04,05,29,10.40
2009,10,04,05,30,10.40
2009,10,04,05,31,10.50
2009,10,04,05,32,10.60
2009,10,04,05,33,10.70
2009,10,04,05,34,10.70
2009,10,04,05,35,10.70
2009,10,04,05,36,10.80
2009,10,04,05,37,10.90
2009,10,04,05,38,10.90
2009,10,04,05,39,10.90
2009,10,04,05,40,10.90
2009,10,04,05,41,10.90
2009,10,04,05,42,11.00
2009,10,04,05,43,11.20
2009,10,04,05,44,11.20
2009,10,04,05,45,11.30
2009,10,04,05,46,11.40
2009,10,04,05,47,11.40
2009,10,04,05,48,11.40
2009,10,04,05,49,11.50
2009,10,04,05,50,11.50
2009,10,04,05,51,11.60
2009,10,04,05,52,11.60
2009,10,04,05,53,11.60
2009,10,04,05,54,11.70
2009,10,04,05,55,11.60
2009,10,04,05,56,11.60
2009,10,04,05,57,11.60
2009,10,04,05,58,11.60
2009,10,04,05,59,11.60
2009,10,04,06,00,11.50
2009,10,04,06,01,11.50
2009,10,04,06,02,11.50
2009,10,04,06,03,11.60
2009,10,04,06,04,11.60
2009,10,04,06,05,11.60
2009,10,04,06,06,11.60
2009,10,04,06,07,11.50
2009,10,04,06,08,11.50
2009,10,04,06,09,11.40
2009,10,04,06,10,11.40
2009,10,04,06,11,11.30
2009,10,04,06,12,11.30
2009,10,04,06,13,11.20
2009,10,04,06,14,11.10
2009,10,04,06,15,11.10
2009,10,04,06,16,11.00
2009,10,04,06,17,10.90
2009,10,04,06,18,10.80
2009,10,04,06,19,10.70
2009,10,04,06,20,10.60
2009,10,04,06,21,10.50
2009,10,04,06,22,10.40
2009,10,04,06,23,10.40
2009,10,04,06,24,10.30
2009,10,04,06,25,10.20
2009,10,04,06,26,10.00
2009,10,04,06,27,9.90
2009,10,04,06,28,9.90
2009,10,04,06,29,9.80
2009,10,04,06,30,9.70
2009,10,04,06,31,9.60
2009,10,04,06,32,9.60
2009,10,04,06,33,9.50
2009,10,04,06,34,9.40
2009,10,04,06,35,9.40
2009,10,04,06,36,9.30
2009,10,04,06,37,9.20
2009,10,04,06,38,9.10
2009,10,04,06,39,9.10
2009,10,04,06,40,9.00
2009,10,04,06,41,9.00
2009,10,04,06,42,8.90
2009,10,04,06,43,8.90
2009,10,04,06,44,8.90
2009,10,04,06,45,8.90
2009,10,04,06,46,8.90
2009,10,04,06,47,8.90
2009,10,04,06,48,8.80
2009,10,04,06,49,8.80
2009,10,04,06,50,8.70
2009,10,04,06,51,8.70
2009,10,04,06,52,8.60
2009,10,04,06,53,8.60
2009,10,04,06,54,8.50
2009,10,04,06,55,8.50
2009,10,04,06,56,8.40
2009,10,04,06,57,8.40
2009,10,04,06,58,8.40
2009,10,04,06,59,8.30
2009,10,04,07,00,8.30
2009,10,04,07,01,8.30
2009,10,04,07,02,8.30
2009,10,04,07,03,8.30
2009,10,04,07,04,8.20
2009,10,04,07,05,8.20
2009,10,04,07,06,8.20
2009,10,04,07,07,8.20
2009,10,04,07,08,8.30
2009,10,04,07,09,8.30
2009,10,04,07,10,8.40
2009,10,04,07,11,8.40
2009,10,04,07,12,8.50
2009,10,04,07,13,8.60
2009,10,04,07,14,8.70
2009,10,04,07,15,8.80
2009,10,04,07,16,9.00
2009,10,04,07,17,9.20
2009,10,04,07,18,9.30
2009,10,04,07,19,9.50
2009,10,04,07,20,9.60
2009,10,04,07,21,9.80
2009,10,04,07,22,9.90
2009,10,04,07,23,10.10
2009,10,04,07,24,10.20
2009,10,04,07,25,10.30
2009,10,04,07,26,10.40
2009,10,04,07,27,10.50
2009,10,04,07,28,10.60
2009,10,04,07,29,10.60
2009,10,04,07,30,10.80
2009,10,04,07,31,10.90
2009,10,04,07,32,10.90
2009,10,04,07,33,11.00
2009,10,04,07,34,11.00
2009,10,04,07,35,11.00
2009,10,04,07,36,11.10
2009,10,04,07,37,11.10
2009,10,04,07,38,11.00
2009,10,04,07,39,11.00
2009,10,04,07,40,11.10
2009,10,04,07,41,11.10
2009,10,04,07,42,11.20
2009,10,04,07,43,11.20
2009,10,04,07,44,11.20
2009,10,04,07,45,11.30
2009,10,04,07,46,11.30
2009,10,04,07,47,11.40
2009,10,04,07,48,11.40
2009,10,04,07,49,11.40
2009,10,04,07,50,11.40
2009,10,04,07,51,11.40
2009,10,04,07,52,11.40
2009,10,04,07,53,11.40
2009,10,04,07,54,11.50
2009,10,04,07,55,11.60
2009,10,04,07,56,11.60
2009,10,04,07,57,11.70
2009,10,04,07,58,11.70
2009,10,04,07,59,11.70
2009,10,04,08,00,11.80
2009,10,04,08,01,11.80
2009,10,04,08,02,11.90
2009,10,04,08,03,11.90
2009,10,04,08,04,12.00
2009,10,04,08,05,12.00
2009,10,04,08,06,12.00
2009,10,04,08,07,12.00
2009,10,04,08,08,12.00
2009,10,04,08,09,12.00
2009,10,04,08,10,12.10
2009,10,04,08,11,12.10
2009,10,04,08,12,12.10
2009,10,04,08,13,12.10
2009,10,04,08,14,12.10
2009,10,04,08,15,12.10
2009,10,04,08,16,12.20
2009,10,04,08,17,12.20
2009,10,04,08,18,12.20
2009,10,04,08,19,12.20
2009,10,04,08,20,12.30
2009,10,04,08,21,12.30
2009,10,04,08,22,12.40
2009,10,04,08,23,12.40
2009,10,04,08,24,12.50
2009,10,04,08,25,12.50
2009,10,04,08,26,12.50
2009,10,04,08,27,12.60
2009,10,04,08,28,12.60
2009,10,04,08,29,12.60
2009,10,04,08,30,12.60
2009,10,04,08,31,12.70
2009,10,04,08,32,12.70
2009,10,04,08,33,12.70
2009,10,04,08,34,12.70
2009,10,04,08,35,12.80
2009,10,04,08,36,12.80
2009,10,04,08,37,12.80
2009,10,04,08,38,12.80
2009,10,04,08,39,12.80
2009,10,04,08,40,12.90
2009,10,04,08,41,12.90
2009,10,04,08,42,12.90
2009,10,04,08,43,13.00
2009,10,04,08,44,13.00
2009,10,04,08,45,13.10
2009,10,04,08,46,13.10
2009,10,04,08,47,13.10
2009,10,04,08,48,13.20
2009,10,04,08,49,13.30
2009,10,04,08,50,13.30
2009,10,04,08,51,13.40
2009,10,04,08,52,13.40
2009,10,04,08,53,13.50
2009,10,04,08,54,13.50
2009,10,04,08,55,13.60
2009,10,04,08,56,13.70
2009,10,04,08,57,13.70
2009,10,04,08,58,13.70
2009,10,04,08,59,13.80
2009,10,04,09,00,13.80
2009,10,04,09,01,13.80
2009,10,04,09,02,13.80
2009,10,04,09,03,13.80
2009,10,04,09,04,13.90
2009,10,04,09,05,13.90
2009,10,04,09,06,13.90
2009,10,04,09,07,14.00
2009,10,04,09,08,14.00
2009,10,04,09,09,14.00
2009,10,04,09,10,14.10
2009,10,04,09,11,14.10
2009,10,04,09,12,14.20
2009,10,04,09,13,14.20
2009,10,04,09,14,14.20
2009,10,04,09,15,14.20
2009,10,04,09,16,14.30
2009,10,04,09,17,14.30
2009,10,04,09,18,14.30
2009,10,04,09,19,14.30
2009,10,04,09,20,14.40
2009,10,04,09,21,14.40
2009,10,04,09,22,14.40
2009,10,04,09,23,14.40
2009,10,04,09,24,14.50
2009,10,04,09,25,14.50
2009,10,04,09,26,14.50
2009,10,04,09,27,14.50
2009,10,04,09,28,14.60
2009,10,04,09,29,14.60
2009,10,04,09,30,14.60
2009,10,04,09,31,14.70
2009,10,04,09,32,14.70
2009,10,04,09,33,14.70
2009,10,04,09,34,14.70
2009,10,04,09,35,14.70
2009,10,04,09,36,14.80
2009,10,04,09,37,14.80
2009,10,04,09,38,14.80
2009,10,04,09,39,14.80
2009,10,04,09,40,14.80
2009,10,04,09,41,14.90
2009,10,04,09,42,14.90
2009,10,04,09,43,15.00
2009,10,04,09,44,15.00
2009,10,04,09,45,15.00
2009,10,04,09,46,15.00
2009,10,04,09,47,15.00
2009,10,04,09,48,15.00
2009,10,04,09,49,15.00
2009,10,04,09,50,15.00
2009,10,04,09,51,14.90
2009,10,04,09,52,14.90
2009,10,04,09,53,14.80
2009,10,04,09,54,14.90
2009,10,04,09,55,14.90
2009,10,04,09,56,14.90
2009,10,04,09,57,14.90
2009,10,04,09,58,14.90
2009,10,04,09,59,14.90
2009,10,04,10,00,14.90
2009,10,04,10,01,14.90
2009,10,04,10,02,15.00
2009,10,04,10,03,15.00
2009,10,04,10,04,15.00
2009,10,04,10,05,15.00
2009,10,04,10,06,15.00
2009,10,04,10,07,15.00
2009,10,04,10,08,15.00
2009,10,04,10,09,15.00
2009,10,04,10,10,15.00
2009,10,04,10,11,15.00
2009,10,04,10,12,15.00
2009,10,04,10,13,15.00
2009,10,04,10,14,15.00
2009,10,04,10,15,15.10
2009,10,04,10,16,15.10
2009,10,04,10,17,15.10
2009,10,04,10,18,15.10
2009,10,04,10,19,15.20
2009,10,04,10,20,15.20
2009,10,04,10,21,15.30
2009,10,04,10,22,15.40
2009,10,04,10,23,15.40
2009,10,04,10,24,15.50
2009,10,04,10,25,15.50
2009,10,04,10,26,15.60
2009,10,04,10,27,15.60
2009,10,04,10,28,15.70
2009,10,04,10,29,15.80
2009,10,04,10,30,15.80
2009,10,04,10,31,15.80
2009,10,04,10,32,15.80
2009,10,04,10,33,15.90
2009,10,04,10,34,16.00
2009,10,04,10,35,16.00
2009,10,04,10,36,16.00
2009,10,04,10,37,16.00
2009,10,04,10,38,16.00
2009,10,04,10,39,16.00
2009,10,04,10,40,16.00
2009,10,04,10,41,16.10
2009,10,04,10,42,16.10
2009,10,04,10,43,16.10
2009,10,04,10,44,16.20
2009,10,04,10,45,16.20
2009,10,04,10,46,16.30
2009,10,04,10,47,16.30
2009,10,04,10,48,16.30
2009,10,04,10,49,16.40
2009,10,04,10,50,16.40
2009,10,04,10,51,16.40
2009,10,04,10,52,16.40
2009,10,04,10,53,16.40
2009,10,04,10,54,16.40
2009,10,04,10,55,16.40
2009,10,04,10,56,16.40
2009,10,04,10,57,16.40
2009,10,04,10,58,16.40
2009,10,04,10,59,16.40
2009,10,04,11,00,16.40
2009,10,04,11,01,16.40
2009,10,04,11,02,16.40
2009,10,04,11,03,16.40
2009,10,04,11,04,16.40
2009,10,04,11,05,16.40
2009,10,04,11,06,16.50
2009,10,04,11,07,16.50
2009,10,04,11,08,16.50
2009,10,04,11,09,16.50
2009,10,04,11,10,16.50
2009,10,04,11,11,16.50
2009,10,04,11,12,16.50
2009,10,04,11,13,16.50
2009,10,04,11,14,16.50
2009,10,04,11,15,16.60
2009,10,04,11,16,16.60
2009,10,04,11,17,16.70
2009,10,04,11,18,16.70
2009,10,04,11,19,16.80
2009,10,04,11,20,16.80
2009,10,04,11,21,16.80
2009,10,04,11,22,16.80
2009,10,04,11,23,16.80
2009,10,04,11,24,16.80
2009,10,04,11,25,16.90
2009,10,04,11,26,16.90
2009,10,04,11,27,16.90
2009,10,04,11,28,17.00
2009,10,04,11,29,17.00
2009,10,04,11,30,17.00
2009,10,04,11,31,17.00
2009,10,04,11,32,17.10
2009,10,04,11,33,17.00
2009,10,04,11,34,17.00
2009,10,04,11,35,16.90
2009,10,04,11,36,16.90
2009,10,04,11,37,17.00
2009,10,04,11,38,16.90
2009,10,04,11,39,17.00
2009,10,04,11,40,17.00
2009,10,04,11,41,17.00
2009,10,04,11,42,17.10
2009,10,04,11,43,17.10
2009,10,04,11,44,17.10
2009,10,04,11,45,17.10
2009,10,04,11,46,17.10
2009,10,04,11,47,17.10
2009,10,04,11,48,17.10
2009,10,04,11,49,17.20
2009,10,04,11,50,17.20
2009,10,04,11,51,17.20
2009,10,04,11,52,17.20
2009,10,04,11,53,17.20
2009,10,04,11,54,17.20
2009,10,04,11,55,17.30
2009,10,04,11,56,17.30
2009,10,04,11,57,17.30
2009,10,04,11,58,17.40
2009,10,04,11,59,17.40
2009,10,04,12,00,17.50
2009,10,04,12,01,17.50
2009,10,04,12,02,17.60
2009,10,04,12,03,17.60
2009,10,04,12,04,17.60
2009,10,04,12,05,17.60
2009,10,04,12,06,17.70
2009,10,04,12,07,17.70
2009,10,04,12,08,17.80
2009,10,04,12,09,17.80
2009,10,04,12,10,17.80
2009,10,04,12,11,17.80
2009,10,04,12,12,17.90
2009,10,04,12,13,17.90
2009,10,04,12,14,17.90
2009,10,04,12,15,18.00
2009,10,04,12,16,18.00
2009,10,04,12,17,18.00
2009,10,04,12,18,17.90
2009,10,04,12,19,18.00
2009,10,04,12,20,18.00
2009,10,04,12,21,18.00
2009,10,04,12,22,18.00
2009,10,04,12,23,18.00
2009,10,04,12,24,18.00
2009,10,04,12,25,18.00
2009,10,04,12,26,18.00
2009,10,04,12,27,18.00
2009,10,04,12,28,18.00
2009,10,04,12,29,17.90
2009,10,04,12,30,17.90
2009,10,04,12,31,18.00
2009,10,04,12,32,18.00
2009,10,04,12,33,18.00
2009,10,04,12,34,18.00
2009,10,04,12,35,18.00
2009,10,04,12,36,18.10
2009,10,04,12,37,18.00
2009,10,04,12,38,18.00
2009,10,04,12,39,18.00
2009,10,04,12,40,18.00
2009,10,04,12,41,18.00
2009,10,04,12,42,18.00
2009,10,04,12,43,18.10
2009,10,04,12,44,18.10
2009,10,04,12,45,18.20
2009,10,04,12,46,18.20
2009,10,04,12,47,18.20
2009,10,04,12,48,18.20
2009,10,04,12,49,18.20
2009,10,04,12,50,18.20
2009,10,04,12,51,18.30
2009,10,04,12,52,18.30
2009,10,04,12,53,18.40
2009,10,04,12,54,18.40
2009,10,04,12,55,18.50
2009,10,04,12,56,18.50
2009,10,04,12,57,18.50
2009,10,04,12,58,18.40
2009,10,04,12,59,18.40
2009,10,04,13,00,18.50
2009,10,04,13,01,18.60
2009,10,04,13,02,18.60
2009,10,04,13,03,18.60
2009,10,04,13,04,18.50
2009,10,04,13,05,18.40
2009,10,04,13,06,18.40
2009,10,04,13,07,18.50
2009,10,04,13,08,18.50
2009,10,04,13,09,18.50
2009,10,04,13,10,18.50
2009,10,04,13,11,18.50
2009,10,04,13,12,18.50
2009,10,04,13,13,18.50
2009,10,04,13,14,18.50
2009,10,04,13,15,18.40
2009,10,04,13,16,18.40
2009,10,04,13,17,18.40
2009,10,04,13,18,18.40
2009,10,04,13,19,18.40
2009,10,04,13,20,18.40
2009,10,04,13,21,18.40
2009,10,04,13,22,18.50
2009,10,04,13,23,18.50
2009,10,04,13,24,18.60
2009,10,04,13,25,18.70
2009,10,04,13,26,18.80
2009,10,04,13,27,18.80
2009,10,04,13,28,18.80
2009,10,04,13,29,18.80
2009,10,04,13,30,18.80
2009,10,04,13,31,18.80
2009,10,04,13,32,18.90
2009,10,04,13,33,18.80
2009,10,04,13,34,18.80
2009,10,04,13,35,18.90
2009,10,04,13,36,18.90
2009,10,04,13,37,19.00
2009,10,04,13,38,19.00
2009,10,04,13,39,19.10
2009,10,04,13,40,19.10
2009,10,04,13,41,19.20
2009,10,04,13,42,19.20
2009,10,04,13,43,19.20
2009,10,04,13,44,19.20
2009,10,04,13,45,19.20
2009,10,04,13,46,19.20
2009,10,04,13,47,19.20
2009,10,04,13,48,19.20
2009,10,04,13,49,19.10
2009,10,04,13,50,19.10
2009,10,04,13,51,19.10
2009,10,04,13,52,19.00
2009,10,04,13,53,19.00
2009,10,04,13,54,18.90
2009,10,04,13,55,18.80
2009,10,04,13,56,18.80
2009,10,04,13,57,18.80
2009,10,04,13,58,18.80
2009,10,04,13,59,18.80
2009,10,04,14,00,18.80
2009,10,04,14,01,18.80
2009,10,04,14,02,18.90
2009,10,04,14,03,18.90
2009,10,04,14,04,18.90
2009,10,04,14,05,19.00
2009,10,04,14,06,18.90
2009,10,04,14,07,18.90
2009,10,04,14,08,18.90
2009,10,04,14,09,18.90
2009,10,04,14,10,18.90
2009,10,04,14,11,18.90
2009,10,04,14,12,18.90
2009,10,04,14,13,19.00
2009,10,04,14,14,19.10
2009,10,04,14,15,19.10
2009,10,04,14,16,19.20
2009,10,04,14,17,19.20
2009,10,04,14,18,19.20
2009,10,04,14,19,19.20
2009,10,04,14,20,19.20
2009,10,04,14,21,19.20
2009,10,04,14,22,19.10
2009,10,04,14,23,19.10
2009,10,04,14,24,19.10
2009,10,04,14,25,19.00
2009,10,04,14,26,19.00
2009,10,04,14,27,19.00
2009,10,04,14,28,19.00
2009,10,04,14,29,19.00
2009,10,04,14,30,19.00
2009,10,04,14,31,19.00
2009,10,04,14,32,19.10
2009,10,04,14,33,19.10
2009,10,04,14,34,19.00
2009,10,04,14,35,19.00
2009,10,04,14,36,19.00
2009,10,04,14,37,18.90
2009,10,04,14,38,19.00
2009,10,04,14,39,19.00
2009,10,04,14,40,19.00
2009,10,04,14,41,19.00
2009,10,04,14,42,19.00
2009,10,04,14,43,18.90
2009,10,04,14,44,18.90
2009,10,04,14,45,18.90
2009,10,04,14,46,18.90
2009,10,04,14,47,18.90
2009,10,04,14,48,18.90
2009,10,04,14,49,19.00
2009,10,04,14,50,19.00
2009,10,04,14,51,19.00
2009,10,04,14,52,19.00
2009,10,04,14,53,19.00
2009,10,04,14,54,19.00
2009,10,04,14,55,19.00
2009,10,04,14,56,19.00
2009,10,04,14,57,19.00
2009,10,04,14,58,19.00
2009,10,04,14,59,19.00
2009,10,04,15,00,18.90
2009,10,04,15,01,18.90
2009,10,04,15,02,19.00
2009,10,04,15,03,19.00
2009,10,04,15,04,19.00
2009,10,04,15,05,19.00
2009,10,04,15,06,18.90
2009,10,04,15,07,18.90
2009,10,04,15,08,18.90
2009,10,04,15,09,19.00
2009,10,04,15,10,19.00
2009,10,04,15,11,18.90
2009,10,04,15,12,19.00
2009,10,04,15,13,19.00
2009,10,04,15,14,19.00
2009,10,04,15,15,19.10
2009,10,04,15,16,19.10
2009,10,04,15,17,19.10
2009,10,04,15,18,19.20
2009,10,04,15,19,19.30
2009,10,04,15,20,19.30
2009,10,04,15,21,19.40
2009,10,04,15,22,19.40
2009,10,04,15,23,19.40
2009,10,04,15,24,19.40
2009,10,04,15,25,19.40
2009,10,04,15,26,19.30
2009,10,04,15,27,19.30
2009,10,04,15,28,19.30
2009,10,04,15,29,19.20
2009,10,04,15,30,19.10
2009,10,04,15,31,19.10
2009,10,04,15,32,19.10
2009,10,04,15,33,19.10
2009,10,04,15,34,19.10
2009,10,04,15,35,19.10
2009,10,04,15,36,19.10
2009,10,04,15,37,19.20
2009,10,04,15,38,19.20
2009,10,04,15,39,19.20
2009,10,04,15,40,19.20
2009,10,04,15,41,19.20
2009,10,04,15,42,19.10
2009,10,04,15,43,19.10
2009,10,04,15,44,19.10
2009,10,04,15,45,19.10
2009,10,04,15,46,19.10
2009,10,04,15,47,19.20
2009,10,04,15,48,19.20
2009,10,04,15,49,19.20
2009,10,04,15,50,19.20
2009,10,04,15,51,19.20
2009,10,04,15,52,19.20
2009,10,04,15,53,19.20
2009,10,04,15,54,19.20
2009,10,04,15,55,19.20
2009,10,04,15,56,19.10
2009,10,04,15,57,19.10
2009,10,04,15,58,19.20
2009,10,04,15,59,19.20
2009,10,04,16,00,19.30
2009,10,04,16,01,19.30
2009,10,04,16,02,19.30
2009,10,04,16,03,19.30
2009,10,04,16,04,19.30
2009,10,04,16,05,19.30
2009,10,04,16,06,19.30
2009,10,04,16,07,19.30
2009,10,04,16,08,19.30
2009,10,04,16,09,19.30
2009,10,04,16,10,19.30
2009,10,04,16,11,19.30
2009,10,04,16,12,19.30
2009,10,04,16,13,19.30
2009,10,04,16,14,19.30
2009,10,04,16,15,19.30
2009,10,04,16,16,19.30
2009,10,04,16,17,19.30
2009,10,04,16,18,19.30
2009,10,04,16,19,19.30
2009,10,04,16,20,19.30
2009,10,04,16,21,19.30
2009,10,04,16,22,19.20
2009,10,04,16,23,19.30
2009,10,04,16,24,19.30
2009,10,04,16,25,19.30
2009,10,04,16,26,19.30
2009,10,04,16,27,19.30
2009,10,04,16,28,19.20
2009,10,04,16,29,19.20
2009,10,04,16,30,19.10
2009,10,04,16,31,19.00
2009,10,04,16,32,19.00
2009,10,04,16,33,18.90
2009,10,04,16,34,18.80
2009,10,04,16,35,18.80
2009,10,04,16,36,18.70
2009,10,04,16,37,18.70
2009,10,04,16,38,18.70
2009,10,04,16,39,18.70
2009,10,04,16,40,18.70
2009,10,04,16,41,18.70
2009,10,04,16,42,18.60
2009,10,04,16,43,18.60
2009,10,04,16,44,18.60
2009,10,04,16,45,18.60
2009,10,04,16,46,18.60
2009,10,04,16,47,18.60
2009,10,04,16,48,18.60
2009,10,04,16,49,18.70
2009,10,04,16,50,18.70
2009,10,04,16,51,18.70
2009,10,04,16,52,18.70
2009,10,04,16,53,18.70
2009,10,04,16,54,18.70
2009,10,04,16,55,18.70
2009,10,04,16,56,18.70
2009,10,04,16,57,18.60
2009,10,04,16,58,18.60
2009,10,04,16,59,18.60
2009,10,04,17,00,18.50
2009,10,04,17,01,18.50
2009,10,04,17,02,18.40
2009,10,04,17,03,18.40
2009,10,04,17,04,18.40
2009,10,04,17,05,18.40
2009,10,04,17,06,18.40
2009,10,04,17,07,18.40
2009,10,04,17,08,18.40
2009,10,04,17,09,18.40
2009,10,04,17,10,18.40
2009,10,04,17,11,18.40
2009,10,04,17,12,18.40
2009,10,04,17,13,18.40
2009,10,04,17,14,18.40
2009,10,04,17,15,18.40
2009,10,04,17,16,18.40
2009,10,04,17,17,18.30
2009,10,04,17,18,18.30
2009,10,04,17,19,18.30
2009,10,04,17,20,18.30
2009,10,04,17,21,18.30
2009,10,04,17,22,18.30
2009,10,04,17,23,18.30
2009,10,04,17,24,18.30
2009,10,04,17,25,18.40
2009,10,04,17,26,18.40
2009,10,04,17,27,18.40
2009,10,04,17,28,18.40
2009,10,04,17,29,18.40
2009,10,04,17,30,18.40
2009,10,04,17,31,18.40